When you browse on this site, cookies collect data to enhance your experience and personalize the content and advertising you see.
Visit our Privacy Policy to learn more. By continuing to use the site, you agree to this use of cookies and data.

Stündliche Wetter Zatysha

Heute, 7 August, Freitag

Zeit Temperatur Niederschläge Wind Luftdruck Luftfeuchtigkeit
00:00 +21°C° 0 mm 2 m/S 750 mmHg 72%
01:00 +20°C° 0 mm 2 m/S 750 mmHg 73%
02:00 +20°C° 0 mm 2 m/S 751 mmHg 74%
03:00 +20°C° 0 mm 2 m/S 750 mmHg 77%
04:00 +19°C° 0 mm 2 m/S 750 mmHg 79%
05:00 +19°C° 0 mm 2 m/S 750 mmHg 81%
06:00 +21°C° 0 mm 2 m/S 750 mmHg 76%
07:00 +24°C° 0 mm 2 m/S 751 mmHg 72%
08:00 +26°C° 0 mm 3 m/S 751 mmHg 67%
09:00 +27°C° 0 mm 3 m/S 751 mmHg 63%
10:00 +28°C° 0 mm 3 m/S 751 mmHg 60%
11:00 +30°C° 0 mm 3 m/S 751 mmHg 56%
12:00 +30°C° 0.3 mm 3 m/S 751 mmHg 57%
13:00 +30°C° 0.3 mm 4 m/S 751 mmHg 58%
14:00 +30°C° 0.3 mm 4 m/S 750 mmHg 58%
15:00 +30°C° 0.8 mm 4 m/S 750 mmHg 61%
16:00 +29°C° 0.8 mm 4 m/S 750 mmHg 64%
17:00 +29°C° 0.8 mm 4 m/S 750 mmHg 66%
18:00 +27°C° 0.2 mm 4 m/S 750 mmHg 72%
19:00 +26°C° 0.2 mm 4 m/S 750 mmHg 77%
20:00 +23°C° 0.2 mm 4 m/S 750 mmHg 83%
21:00 +22°C° 0 mm 4 m/S 750 mmHg 81%
22:00 +21°C° 0 mm 4 m/S 750 mmHg 79%
23:00 +20°C° 0 mm 4 m/S 750 mmHg 77%

Morgen, 8 August, Samstag

Zeit Temperatur Niederschläge Wind Luftdruck Luftfeuchtigkeit
00:00 +20°C° 0 mm 3 m/S 750 mmHg 80%
01:00 +19°C° 0 mm 3 m/S 750 mmHg 84%
02:00 +18°C° 0 mm 3 m/S 750 mmHg 87%
03:00 +18°C° 0 mm 3 m/S 750 mmHg 87%
04:00 +17°C° 0 mm 3 m/S 750 mmHg 86%
05:00 +17°C° 0 mm 3 m/S 750 mmHg 86%
06:00 +18°C° 0 mm 3 m/S 750 mmHg 80%
07:00 +20°C° 0 mm 4 m/S 750 mmHg 73%
08:00 +22°C° 0 mm 4 m/S 750 mmHg 67%
09:00 +23°C° 0 mm 4 m/S 750 mmHg 62%
10:00 +25°C° 0 mm 5 m/S 750 mmHg 57%
11:00 +26°C° 0 mm 5 m/S 750 mmHg 52%
12:00 +27°C° 0 mm 5 m/S 750 mmHg 52%
13:00 +27°C° 0 mm 5 m/S 749 mmHg 51%
14:00 +28°C° 0 mm 5 m/S 749 mmHg 50%
15:00 +28°C° 0 mm 5 m/S 749 mmHg 52%
16:00 +27°C° 0 mm 4 m/S 748 mmHg 54%
17:00 +27°C° 0 mm 4 m/S 748 mmHg 56%
18:00 +25°C° 0 mm 4 m/S 748 mmHg 62%
19:00 +24°C° 0 mm 3 m/S 748 mmHg 69%
20:00 +21°C° 0 mm 3 m/S 748 mmHg 75%
21:00 +20°C° 0 mm 3 m/S 748 mmHg 78%
22:00 +20°C° 0 mm 2 m/S 748 mmHg 81%
23:00 +19°C° 0 mm 2 m/S 748 mmHg 83%

übermorgen, 9 August, Sonntag

Zeit Temperatur Niederschläge Wind Luftdruck Luftfeuchtigkeit
00:00 +18°C° 0 mm 2 m/S 748 mmHg 85%
01:00 +18°C° 0 mm 2 m/S 748 mmHg 86%
02:00 +18°C° 0 mm 2 m/S 748 mmHg 88%
03:00 +17°C° 0 mm 2 m/S 747 mmHg 89%
04:00 +17°C° 0 mm 2 m/S 747 mmHg 90%
05:00 +17°C° 0 mm 2 m/S 747 mmHg 92%
06:00 +18°C° 0 mm 2 m/S 747 mmHg 85%
07:00 +20°C° 0 mm 2 m/S 747 mmHg 78%
08:00 +23°C° 0 mm 2 m/S 748 mmHg 71%
09:00 +24°C° 0 mm 3 m/S 747 mmHg 65%
10:00 +25°C° 0 mm 3 m/S 747 mmHg 58%
11:00 +27°C° 0 mm 3 m/S 747 mmHg 52%
12:00 +27°C° 0 mm 3 m/S 747 mmHg 50%
13:00 +28°C° 0 mm 3 m/S 747 mmHg 48%
14:00 +28°C° 0 mm 2 m/S 747 mmHg 46%
15:00 +28°C° 0 mm 2 m/S 746 mmHg 48%
16:00 +28°C° 0 mm 2 m/S 746 mmHg 49%
17:00 +27°C° 0 mm 2 m/S 746 mmHg 51%
18:00 +26°C° 0 mm 2 m/S 746 mmHg 56%
19:00 +24°C° 0 mm 1 m/S 746 mmHg 62%
20:00 +22°C° 0 mm 1 m/S 746 mmHg 67%
21:00 +21°C° 0 mm 1 m/S 746 mmHg 70%
22:00 +21°C° 0 mm 1 m/S 746 mmHg 73%
23:00 +20°C° 0 mm 1 m/S 746 mmHg 76%

10 August, Montag

Zeit Temperatur Niederschläge Wind Luftdruck Luftfeuchtigkeit
00:00 +20°C° 0 mm 1 m/S 746 mmHg 79%
01:00 +19°C° 0 mm 1 m/S 746 mmHg 81%
02:00 +19°C° 0 mm 1 m/S 746 mmHg 84%
03:00 +19°C° 0 mm 1 m/S 746 mmHg 86%
04:00 +18°C° 0 mm 2 m/S 746 mmHg 89%
05:00 +17°C° 0 mm 2 m/S 746 mmHg 92%
06:00 +19°C° 0 mm 2 m/S 746 mmHg 85%
07:00 +21°C° 0 mm 2 m/S 746 mmHg 79%
08:00 +24°C° 0 mm 2 m/S 746 mmHg 72%
09:00 +25°C° 0.7 mm 2 m/S 746 mmHg 67%
10:00 +26°C° 0.7 mm 2 m/S 746 mmHg 62%
11:00 +27°C° 0.7 mm 2 m/S 746 mmHg 57%
12:00 +27°C° 0.2 mm 2 m/S 746 mmHg 54%
13:00 +28°C° 0.2 mm 2 m/S 746 mmHg 51%
14:00 +28°C° 0.2 mm 2 m/S 745 mmHg 48%
15:00 +28°C° 0.1 mm 2 m/S 745 mmHg 49%
16:00 +28°C° 0.1 mm 2 m/S 745 mmHg 50%
17:00 +28°C° 0.1 mm 2 m/S 745 mmHg 51%
18:00 +26°C° 0 mm 1 m/S 745 mmHg 56%
19:00 +24°C° 0 mm 1 m/S 745 mmHg 61%
20:00 +22°C° 0 mm 1 m/S 745 mmHg 65%
21:00 +22°C° 0.2 mm 1 m/S 745 mmHg 68%
22:00 +21°C° 0.2 mm 1 m/S 745 mmHg 71%
23:00 +21°C° 0.2 mm 1 m/S 745 mmHg 74%

11 August, Dienstag

Zeit Temperatur Niederschläge Wind Luftdruck Luftfeuchtigkeit
00:00 +20°C° 0.1 mm 1 m/S 745 mmHg 76%
01:00 +20°C° 0.1 mm 1 m/S 745 mmHg 78%
02:00 +19°C° 0.1 mm 1 m/S 745 mmHg 80%
03:00 +19°C° 0 mm 1 m/S 745 mmHg 82%
04:00 +19°C° 0 mm 1 m/S 745 mmHg 85%
05:00 +18°C° 0 mm 1 m/S 745 mmHg 87%
06:00 +20°C° 0 mm 1 m/S 745 mmHg 81%
07:00 +22°C° 0 mm 1 m/S 745 mmHg 76%
08:00 +24°C° 0 mm 2 m/S 745 mmHg 71%
09:00 +25°C° 0 mm 2 m/S 745 mmHg 65%
10:00 +26°C° 0 mm 2 m/S 745 mmHg 59%
11:00 +28°C° 0 mm 2 m/S 745 mmHg 53%
12:00 +28°C° 0.1 mm 2 m/S 745 mmHg 50%
13:00 +29°C° 0.1 mm 2 m/S 745 mmHg 48%
14:00 +29°C° 0.1 mm 2 m/S 744 mmHg 45%
15:00 +29°C° 0 mm 2 m/S 744 mmHg 46%
16:00 +29°C° 0 mm 1 m/S 744 mmHg 47%
17:00 +29°C° 0 mm 1 m/S 744 mmHg 48%
18:00 +27°C° 0 mm 1 m/S 744 mmHg 52%
19:00 +25°C° 0 mm 1 m/S 744 mmHg 56%
20:00 +24°C° 0 mm 1 m/S 744 mmHg 61%
21:00 +23°C° 0 mm 1 m/S 744 mmHg 62%
22:00 +22°C° 0 mm 1 m/S 744 mmHg 64%
23:00 +22°C° 0 mm 1 m/S 744 mmHg 65%

12 August, Mittwoch

Zeit Temperatur Niederschläge Wind Luftdruck Luftfeuchtigkeit
00:00 +21°C° 0 mm 1 m/S 743 mmHg 67%
01:00 +21°C° 0 mm 1 m/S 743 mmHg 69%
02:00 +20°C° 0 mm 1 m/S 743 mmHg 70%
03:00 +20°C° 0 mm 1 m/S 743 mmHg 72%
04:00 +20°C° 0 mm 1 m/S 743 mmHg 74%
05:00 +19°C° 0 mm 1 m/S 743 mmHg 76%
06:00 +21°C° 0 mm 1 m/S 743 mmHg 73%
07:00 +21°C° 0 mm 2 m/S 743 mmHg 70%
08:00 +24°C° 0 mm 2 m/S 743 mmHg 67%
09:00 +25°C° 0.6 mm 2 m/S 743 mmHg 65%
10:00 +26°C° 0.6 mm 2 m/S 743 mmHg 63%
11:00 +27°C° 0.6 mm 3 m/S 743 mmHg 61%
12:00 +27°C° 0.7 mm 3 m/S 743 mmHg 60%
13:00 +27°C° 0.7 mm 3 m/S 743 mmHg 60%
14:00 +27°C° 0.7 mm 3 m/S 743 mmHg 59%
15:00 +26°C° 0.3 mm 3 m/S 743 mmHg 63%
16:00 +25°C° 0.3 mm 3 m/S 743 mmHg 67%
17:00 +23°C° 0.3 mm 4 m/S 743 mmHg 72%
18:00 +22°C° 0.2 mm 3 m/S 743 mmHg 71%
19:00 +21°C° 0.2 mm 3 m/S 743 mmHg 71%
20:00 +20°C° 0.2 mm 3 m/S 743 mmHg 71%
21:00 +19°C° 0 mm 3 m/S 743 mmHg 72%
22:00 +19°C° 0 mm 3 m/S 743 mmHg 73%
23:00 +18°C° 0 mm 4 m/S 743 mmHg 75%
Mehr zeigen